Regional Weather Roundup
Issued by NWS

Home | Current Version | Previous Version | Graphics & Text | Print | Product List | Glossary On
Versions: 1 2 3 4 5 6 7 8 9 10 11 12 13 14 15 16 17 18 19 20 21 22 23 24 25 26 27 28 29 30 31 32 33 34 35 36 37 38 39 40 41 42 43 44 45 46 47 48 49 50
000
ASUS43 KMPX 260410
RWRMN
WEATHER ROUNDUP FOR MINNESOTA
NATIONAL WEATHER SERVICE TWIN CITIES/CHANHASSEN MN
1100 PM CDT THU MAY 25 2017


NOTE: "FAIR" INDICATES FEW OR NO CLOUDS BELOW 12,000 FEET WITH NO
SIGNIFICANT WEATHER AND/OR OBSTRUCTIONS TO VISIBILITY. N/A MEANS
CURRENT SKY AND/OR WEATHER CONDITIONS ARE NOT AVAILABLE.

MNZ060>063-068>070-260500-
   Twin Cities Metro

CITY           SKY/WX    TMP DP  RH WIND       PRES   REMARKS
TWIN CITIES    LGT RAIN  65  54  67 SW5       29.71R
ST PAUL        LGT RAIN  63  56  78 SW5       29.71R
CRYSTAL        CLOUDY    61  54  77 SE3       29.69R
BLAINE         MOCLDY    61  61 100 S3        29.70R
LAKEVILLE      DRIZZLE   61  54  77 CALM      29.70R
EDEN PRAIRIE   LGT RAIN  63  54  72 SE6       29.68R
SOUTH ST PAUL  CLOUDY    63  54  72 S6        29.70R
LAKE ELMO      LGT RAIN  61  54  77 SE3       29.71R
$$
MNZ001>005-007-008-013>017-022>024-027-028-260500-
   Northwest Minnesota

CITY           SKY/WX    TMP DP  RH WIND       PRES   REMARKS
BEMIDJI        CLOUDY    59  49  71 SE12      29.64R
HALLOCK        PTCLDY    61  48  63 SE15      29.52R
ROSEAU         CLOUDY    63  52  67 S13G18    29.59S
WARROAD        CLOUDY    61  52  72 S13G18    29.61R
THIEF RVR FALL PTCLDY    60  48  64 SE13      29.58S
CROOKSTON      CLEAR     61  50  67 S15       29.56R
FOSSTON        CLOUDY    61  48  63 SE15G24   29.61R
DETROIT LAKES  CLOUDY    61  50  67 SE12G17   29.63S
MOORHEAD       PTCLDY    63  52  67 S13       29.58R
PARK RAPIDS    LGT RAIN  61  48  62 SE14      29.64R
MAHNOMEN       CLOUDY    61  50  66 SE15      29.59F
$$
MNZ006-009>011-018-025>026-260500-
   North Central Minnesota

CITY           SKY/WX    TMP DP  RH WIND       PRES   REMARKS
BAUDETTE       CLOUDY    62  47  57 SE12      29.62F
FLAG ISLAND    CLOUDY    57  52  82 S12       29.60R
INTL FALLS     CLOUDY    61  47  59 SE7       29.66R
WASKISH        CLOUDY    61  50  67 S7        29.64R
BIG FORK       CLOUDY    61  48  63 SE6       29.68R
LONGVILLE      RAIN      57  52  82 SE3       29.68R
GRAND RAPIDS   LGT RAIN  54  49  83 SE7       29.72R
CRANE LAKE     CLOUDY    57  46  67 SE3       29.71S
ORR            CLOUDY    59  43  55 SE12G20   29.68R
COOK           CLOUDY    57  46  67 SE9       29.71S
WALKER         CLOUDY    59  49  70 SE10      29.66R
$$
MNZ012-019>021-037-260500-
   Northeast Minnesota

CITY           SKY/WX    TMP DP  RH WIND       PRES   REMARKS
DULUTH         CLOUDY    54  44  69 SE7       29.72R
ELY            CLOUDY    54  43  66 SE7       29.73S
HIBBING        CLOUDY    54  44  69 SE8       29.71R
EVELETH        CLOUDY    55  39  55 E3        29.73S
DULUTH HARBOR  MOCLDY    46  43  87 E3        29.74S
TWO HARBORS    MOCLDY    55  46  71 NE5       29.72S
SILVER BAY     PTCLDY    54  45  71 NE7       29.73S
GRAND MARAIS     N/A     52  44  74 NE8       29.76R
G MARAIS ARPRT CLEAR     52  37  58 E7        29.78R
$$
MNZ029>031-032-039>041-046>048-054>057-064-260500-
   West Central Minnesota

CITY           SKY/WX    TMP DP  RH WIND       PRES   REMARKS
FERGUS FALLS   CLOUDY    61  52  72 S10       29.60R
WHEATON        CLOUDY    59  52  77 SE8       29.62S
MORRIS         CLOUDY    57  54  88 SE9       29.61S
ALEXANDRIA     CLOUDY    60  52  74 SE10      29.65R
ELBOW LAKE     CLOUDY    59  53  80 E9        29.62S
WADENA         CLOUDY    57  52  82 SE7       29.64S
GLENWOOD       CLOUDY    59  54  82 SE10      29.65S
APPLETON       CLEAR     61  54  77 SE6       29.62S
BENSON         CLOUDY    63  52  67 S12       29.64S
ORTONVILLE     PTCLDY    55  52  88 SE3       29.61S
MADISON        CLEAR     57  57 100 SE8       29.61F
WILLMAR        FAIR      59  54  82 SE8       29.66S
$$
MNZ033>034-036-042>043-049>051-058-059-260500-
   Central Minnesota

CITY           SKY/WX    TMP DP  RH WIND       PRES   REMARKS
ST CLOUD       CLOUDY    60  54  80 SE7       29.68R
SAUK CENTRE    CLOUDY    58  54  85 E6        29.66S
PAYNESVILLE    CLOUDY    60  52  75 SE5       29.67S
AITKIN         DRIZZLE   54  50  87 CALM      29.68S
PINE RIVER     CLOUDY    57  54  88 SE7       29.71S
BRAINERD       LGT RAIN  58  52  80 SE9       29.69R
STAPLES        CLOUDY    55  52  88 SE5       29.66S
LONG PRAIRIE   CLOUDY    57  52  82 E7        29.66S
LITTLE FALLS   CLOUDY    59  52  77 SE6       29.68S
LITCHFIELD     CLOUDY    63  54  72 SE6       29.67S
BUFFALO        CLOUDY    60  53  75 SE5       29.69S
MAPLE LAKE     CLOUDY    61  56  83 CALM      29.69S
HUTCHINSON     CLEAR     60  54  82 SE7       29.68S
$$
MNZ037-044-045-052-053-260500-
   East Central Minnesota

CITY           SKY/WX    TMP DP  RH WIND       PRES   REMARKS
PRINCETON      LGT RAIN  63  55  77 CALM      29.70R
MORA           LGT RAIN  55  52  88 CALM      29.72R
CAMBRIDGE      LGT RAIN  61  54  77 CALM      29.69R
RUSH CITY      LGT RAIN  60  52  75 S5        29.71R
MOOSE LAKE     DRIZZLE   50  43  76 CALM      29.70R
HINCKLEY       CLOUDY    59  54  82 N3        29.70R
CLOQUET        CLOUDY    52  43  71 E5        29.72S
MCGREGOR       CLOUDY    52  46  82 E5        29.71S
$$
MNZ071>073-080-081-089-090-097-098-260500-
   Southwest Minnesota

CITY           SKY/WX    TMP DP  RH WIND       PRES   REMARKS
MONTEVIDEO     CLEAR     59  54  82 S8        29.63R
CANBY          CLEAR     55  53  96 CALM      29.64R FOG
MARSHALL       CLEAR     58  54  86 SE7       29.65R
REDWOOD FALLS  PTCLDY    61  50  67 SE12      29.65R
OLIVIA         PTCLDY    59  52  77 SE6       29.65R
PIPESTONE      CLEAR     57  48  72 SW3       29.66R
WINDOM         CLEAR     61  50  67 SE7       29.67R
WORTHINGTON    CLEAR     60  52  74 SE8       29.66R
JACKSON        CLEAR     59  50  72 SE9       29.68R
TRACY          CLEAR     61  54  77 S9        29.65R
SLAYTON        CLEAR     57  52  82 S6        29.67R
$$
MNZ065>067-074>077-082>085-091>093-260500-
   South Central Minnesota

CITY           SKY/WX    TMP DP  RH WIND       PRES   REMARKS
MANKATO        CLOUDY    62  52  69 SE13      29.68S
NEW ULM        PTCLDY    61  50  67 SE9       29.67R
ST JAMES       CLEAR     61  52  72 SE14      29.67R
FAIRMONT       PTCLDY    59  52  77 SE12      29.69R
GLENCOE        MOCLDY    62  56  82 SE6       29.67S
FARIBAULT      CLOUDY    63  54  72 SE8       29.71S
OWATONNA       MOCLDY    61  54  77 SE6       29.71F
WASECA         CLOUDY    59  52  77 SE8       29.71F
ALBERT LEA     CLOUDY    61  57  88 CALM      29.71F
$$
MNZ078>079-086>088-094>096-260500-
   Southeast Minnesota

CITY           SKY/WX    TMP DP  RH WIND       PRES   REMARKS
ROCHESTER      LGT RAIN  59  57  93 CALM      29.75R
RED WING       CLOUDY    63  52  67 CALM      29.70R
STANTON        DRIZZLE   62  55  76 S6        29.70R
DODGE CENTER   MOCLDY    59  54  82 S5        29.73S
WINONA         CLOUDY    59  52  77 CALM      29.71F
AUSTIN         CLOUDY    61  55  82 CALM      29.72S
PRESTON        LGT RAIN  59  54  84 S6        29.75R
$$
ABBREVIATIONS USED IN REMARKS
   TC - TEMPERATURES IN CELSIUS
  WCI - WIND CHILL INDEX
   HX - HEAT INDEX
  VSB - VISIBILITY
$$



USA.gov is the U.S. government's official web portal to all federal, state and local government web resources and services.